Tracking 25744 objects as of 25-Jun-2022
HD Live streaming from Space Station
objects crossing your sky now

STARLINK-3321

Track STARLINK-3321 now!
10-day predictions
STARLINK-3321 is classified as:


NORAD ID: 50803
Int'l Code: 2022-001A
Perigee: 544.9 km
Apogee: 548.9 km
Inclination: 53.2 °
Period: 95.4 minutes
Semi major axis: 6917 km
RCS: Unknown
Launch date: January 6, 2022
Source: United States (US)
Launch site: AIR FORCE EASTERN TEST RANGE (AFETR)
aabbcc
Your satellite tracking list
Your tracking list is empty




NASA's NSSDC Master Catalog

Two Line Element Set (TLE):
1 50803U 22001A   22175.17789482  .00000060  00000-0  21930-4 0  9999
2 50803  53.2177 129.7498 0002836  53.9261 306.1994 15.08835999 25925
Source of the keplerian elements: AFSPC